Volver al catálogo

RASSVET-3 16

ActivoCienciaPO
NORAD 68375·PAYLOAD·🇷🇺 Russia

Lanzado Mar 23, 2026 desde Plesetsk Cosmodrome

Loading…

Próximos Pases (próximas 24 horas)

TLE

ActualizadoSource: Space-Track

Época: Sep 14, 2026, 01:10 UTC

1 68375U 26061R   26257.04864033  .00002765  00000-0  13311-3 0  9996
2 68375  82.2895 281.6689 0002768  81.7165 278.4382 15.18382043 27048

Sigue RASSVET-3 16 en tiempo real con AllMySat

Download on the App Store